Wind_Speed
22 21 20 20 20 20 18 17 16 15 14 13 12 11 10 9 7 7 8 9 7 6 5 4 4 3 4 4 4 3 3 4 5 5 6 6 6 6 6 6 6 8 8 8 8 8 9 10 10 12 13 15 16 17 18 19 21 23 24 25 25 25 26 27 30 36 37 35 37 39 38 40 40 38 39 41 41 42 43 43 43 44 44 45 45
22 22 22 22 21 19 17 17 16 15 14 13 12 11 11 10 8 8 9 9 8 6 5 5 5 5 5 4 4 4 4 4 4 5 5 6 5 5 5 6 7 8 7 7 8 9 9 10 11 13 14 15 16 17 18 20 22 24 25 27 28 27 28 29 31 36 39 39 39 40 39 39 40 40 40 42 44 45 45 46 46 46 46 45 46
21 21 20 19 17 16 16 16 16 15 14 13 12 12 12 10 9 9 10 9 8 7 6 6 6 6 6 5 4 4 3 3 3 4 4 5 5 4 5 5 6 6 5 6 8 9 10 10 12 14 15 15 16 17 19 21 23 25 27 28 29 29 29 30 31 34 39 40 40 40 40 40 40 41 42 43 45 46 47 47 47 47 47 47 46
19 19 17 16 16 17 17 16 16 15 14 14 13 13 12 11 10 11 11 8 7 7 7 7 7 7 6 5 4 4 3 2 3 3 3 4 5 5 5 4 4 4 5 6 8 9 10 12 13 14 14 15 17 18 20 22 24 26 28 28 29 30 29 29 30 32 36 39 39 39 40 41 41 42 44 45 46 47 47 47 46 48 48 47 47
19 19 18 17 18 18 17 17 16 15 15 15 14 14 12 11 12 12 10 8 7 8 9 9 8 7 6 5 4 3 3 2 2 2 3 4 5 5 4 3 3 3 5 6 8 10 11 12 13 14 15 16 18 20 22 24 26 27 28 29 29 30 30 30 30 31 33 37 39 39 40 41 43 43 44 47 48 49 48 46 46 48 49 49 50
21 20 19 18 19 18 18 17 16 16 16 16 15 14 13 13 13 12 9 8 8 9 10 9 8 7 6 6 5 3 3 2 2 2 2 3 4 5 3 2 3 4 5 6 9 11 12 13 13 14 16 17 19 22 24 25 27 28 29 29 30 30 30 30 31 32 33 35 38 40 41 42 44 45 45 46 47 48 50 50 49 49 50 52 50
23 21 20 19 19 18 18 17 17 16 16 16 15 14 14 14 14 12 10 9 9 10 10 10 9 8 7 6 5 4 3 3 2 2 2 3 3 4 3 3 3 4 5 7 9 11 12 13 14 15 16 18 21 23 25 26 27 28 29 29 30 30 31 31 31 32 33 35 37 40 42 43 44 46 46 46 44 45 48 51 53 53 52 49 44
24 22 21 20 19 19 18 17 17 16 16 15 15 15 16 16 14 12 10 10 10 10 10 10 9 8 7 6 6 5 4 3 2 2 2 2 3 3 4 3 4 4 5 7 9 11 12 13 14 15 17 20 21 23 24 25 26 27 28 29 29 30 31 31 32 33 34 36 38 40 42 43 45 46 47 47 46 47 47 48 51 55 51 45 40
25 23 22 21 20 19 19 17 17 17 16 16 17 17 17 16 13 12 11 11 11 12 11 10 9 8 8 7 6 5 4 3 2 2 1 1 2 3 4 4 4 5 5 7 9 11 12 13 14 16 18 19 20 21 23 24 25 27 28 28 29 30 30 31 32 33 35 37 39 40 42 44 46 47 47 46 46 47 48 47 50 52 47 43 42
25 24 23 21 21 20 19 18 17 17 17 18 19 19 18 15 13 12 12 12 12 12 11 11 10 8 8 7 7 6 4 3 3 2 2 1 2 3 4 4 5 5 6 7 9 10 11 12 14 15 17 18 19 21 22 22 23 25 26 27 28 29 30 30 31 32 34 36 38 40 42 44 45 45 45 44 44 46 48 48 51 52 47 44 47
26 25 23 21 21 20 19 19 19 19 19 20 20 19 17 15 13 12 12 13 14 13 12 11 10 9 8 7 7 6 5 4 3 3 2 2 2 3 3 3 4 5 6 7 8 8 9 11 13 15 16 18 19 20 21 21 21 22 23 25 26 27 28 30 30 31 33 35 37 38 40 42 44 43 43 43 44 45 46 47 50 51 47 45 48
27 25 23 22 22 21 20 20 20 20 21 21 20 19 16 14 14 13 13 13 13 13 12 11 11 10 9 8 7 6 5 5 4 4 3 3 2 2 2 2 3 4 5 6 7 7 8 10 12 14 16 17 19 20 20 20 21 22 22 23 24 24 26 27 29 30 31 34 36 37 38 40 42 42 42 43 45 45 46 47 48 48 46 45 46
27 25 24 23 23 23 22 21 21 21 22 22 20 18 16 15 14 14 14 13 13 12 12 12 11 11 10 9 7 7 6 6 5 5 4 3 3 2 2 2 2 3 4 5 6 7 8 9 11 13 15 16 18 19 20 21 21 22 22 22 23 24 24 25 26 27 29 31 33 34 35 38 41 42 41 42 44 45 46 47 47 47 46 44 43
29 28 26 25 25 24 23 22 22 23 23 22 20 18 16 15 14 14 14 13 13 12 12 12 12 11 10 9 8 7 7 7 6 6 5 4 3 3 2 2 1 2 3 4 5 6 7 8 10 12 14 15 16 18 19 21 22 22 23 23 24 24 25 26 26 27 27 28 30 31 33 36 39 40 41 41 42 44 46 47 46 46 45 44 42
31 30 27 27 27 26 24 23 23 24 24 23 21 19 17 15 14 13 13 13 12 12 12 12 12 11 11 10 9 8 8 8 7 6 5 4 3 3 2 2 1 1 2 3 5 6 7 8 9 11 13 15 16 18 19 21 22 23 24 24 25 25 26 27 28 28 28 28 27 28 31 34 37 38 39 39 40 41 42 43 43 43 44 44 43
33 31 29 29 28 27 25 24 25 26 25 24 22 19 17 15 14 13 14 13 13 13 13 13 12 11 11 11 10 9 9 8 8 6 5 4 3 3 3 2 1 0 1 3 4 6 7 7 9 11 12 14 15 17 19 20 22 23 24 25 26 26 26 27 27 27 28 28 27 27 29 32 34 37 38 39 40 41 41 42 43 45 46 46 45
34 32 31 30 29 28 26 25 25 27 26 25 22 19 17 16 15 14 14 14 14 14 13 13 13 12 12 12 11 10 9 9 8 7 6 5 4 3 3 2 2 1 1 2 4 5 6 7 8 10 12 13 15 17 18 20 22 23 25 26 26 27 28 28 27 27 28 29 28 28 29 31 34 36 38 39 40 42 44 46 47 47 48 46 44
34 32 32 32 31 28 26 25 26 27 27 25 22 19 17 16 15 13 13 13 13 14 14 14 14 14 13 13 12 11 10 9 9 8 6 5 4 4 3 3 2 2 1 2 3 4 5 6 8 9 11 13 14 16 18 20 22 23 25 27 27 29 30 30 30 29 29 29 30 31 31 32 35 38 39 40 42 42 44 47 47 47 46 44 43
34 32 32 32 29 24 23 23 24 26 26 24 21 19 17 16 15 13 13 13 14 14 15 15 15 15 15 14 13 12 11 10 9 8 7 7 5 5 4 3 3 2 2 2 2 3 4 6 7 9 11 13 14 16 17 19 22 23 25 27 28 29 30 31 32 32 32 32 33 33 34 35 37 40 41 42 43 43 44 45 46 47 46 44 45
34 32 31 30 25 21 21 21 21 24 25 23 21 20 17 16 15 15 14 15 15 15 15 16 16 16 17 16 15 14 12 11 10 9 9 8 6 5 5 4 3 2 1 1 1 2 4 5 6 8 10 12 14 16 17 19 21 22 24 26 28 29 29 30 31 32 33 34 34 34 35 36 38 41 42 43 44 45 45 46 46 47 46 45 45
34 32 30 28 24 21 21 21 21 24 24 22 21 20 17 16 16 15 15 16 17 16 16 17 17 17 17 17 16 15 14 12 11 10 9 8 7 6 5 4 3 2 1 0 1 2 3 4 6 8 10 12 14 15 16 18 20 21 23 25 26 27 28 29 30 31 32 34 34 35 36 37 39 41 43 45 45 46 47 48 47 46 46 45 46
35 32 30 28 24 22 23 23 23 24 24 22 22 21 18 17 16 15 16 17 18 18 18 18 18 19 18 18 17 16 15 14 12 11 10 8 7 6 5 4 3 2 1 0 1 2 3 4 5 7 9 11 13 15 16 17 18 20 21 23 24 26 27 28 29 30 32 34 35 36 37 38 40 42 44 45 46 46 48 48 47 45 45 45 45
35 32 29 27 25 24 25 24 22 24 24 23 23 22 20 19 18 17 18 19 20 20 19 20 20 20 19 19 18 16 15 14 13 12 11 9 7 6 5 4 3 1 1 1 2 3 3 4 6 7 9 10 12 14 15 17 18 19 20 22 23 25 26 27 29 30 31 34 36 37 38 39 40 42 44 45 46 46 47 48 47 46 45 44 45
34 31 28 27 26 25 25 22 21 23 25 25 24 23 21 20 20 19 20 20 21 21 22 22 22 21 21 20 19 18 16 15 14 13 11 9 8 7 5 4 3 2 2 2 3 4 4 5 6 7 8 10 11 13 15 16 17 18 20 21 23 25 26 27 29 30 31 33 36 37 38 38 39 41 42 43 44 45 45 45 46 46 46 45 45
31 30 28 27 26 25 25 23 22 23 26 26 25 25 23 22 22 22 22 22 23 23 23 23 23 22 22 21 19 18 17 16 15 14 12 10 9 7 6 4 3 2 2 3 4 4 4 5 6 7 8 9 11 12 14 16 17 18 19 20 22 24 26 27 29 30 31 33 35 36 37 37 37 38 39 40 41 44 45 46 46 47 47 46 46
30 29 28 27 26 25 25 25 24 24 26 27 26 25 24 23 23 24 24 24 25 25 25 25 24 24 23 21 20 19 18 17 16 15 13 11 9 8 6 5 4 2 2 3 4 4 4 5 6 7 8 9 10 12 13 15 16 18 19 20 21 24 26 27 28 30 31 32 33 35 36 36 36 37 38 39 40 43 46 48 49 49 50 50 49
29 28 27 27 27 26 26 26 25 26 28 28 27 25 24 24 24 26 26 27 27 28 27 26 26 25 24 22 21 20 18 17 16 15 14 12 10 8 7 5 4 3 3 4 5 5 5 5 6 7 8 9 10 11 12 14 16 17 18 19 20 22 25 26 27 29 30 31 32 33 34 35 36 38 39 39 40 42 44 47 49 51 51 51 52
28 27 26 27 27 26 27 27 25 26 29 30 27 26 25 25 26 26 27 27 28 29 29 28 27 25 23 22 21 20 19 19 17 15 14 12 10 9 7 6 5 4 3 4 5 6 6 6 6 6 7 8 9 11 12 13 15 16 18 19 20 21 23 25 26 27 29 30 31 32 33 35 36 38 39 40 40 40 42 45 47 49 51 52 54
27 26 26 27 27 27 27 27 25 26 29 29 27 25 24 24 25 25 24 25 25 26 26 26 25 23 22 21 20 20 18 16 14 13 12 12 11 9 8 7 6 5 5 5 6 7 7 7 6 6 7 8 9 10 12 13 14 15 17 19 20 22 23 24 25 27 28 29 30 32 33 34 36 37 39 40 40 39 40 42 45 48 50 52 54
28 27 26 26 27 27 27 27 26 27 29 29 27 25 24 24 23 23 22 23 24 24 24 23 21 21 20 20 19 17 14 12 11 12 13 12 11 10 9 8 8 7 7 7 8 9 9 9 8 7 7 8 10 11 12 13 14 15 16 18 20 22 23 24 26 27 28 29 30 31 32 33 35 36 38 39 40 39 39 40 42 46 48 50 52
29 28 26 26 26 27 27 27 27 28 29 29 28 26 26 25 25 23 22 22 23 24 23 22 20 19 19 18 17 15 13 11 12 13 13 12 11 11 10 9 9 10 10 10 10 11 11 11 10 9 8 9 10 11 12 13 14 15 16 18 19 21 23 24 25 26 27 28 29 30 31 32 33 35 36 38 39 39 39 39 40 43 45 47 49
30 28 26 26 26 26 25 25 27 29 30 30 29 28 26 27 27 27 26 25 25 24 24 23 21 21 20 19 17 15 13 11 10 11 11 11 11 12 11 11 11 12 12 12 13 13 13 13 12 10 9 9 10 10 11 12 13 15 17 18 19 21 22 23 24 25 27 28 29 30 31 32 32 33 34 36 37 39 39 39 39 40 42 44 46
30 29 27 26 26 26 27 27 28 29 30 30 31 30 28 28 29 29 29 28 27 26 25 24 24 23 22 20 18 16 13 11 9 9 10 11 12 12 13 13 13 14 14 14 14 14 14 14 14 12 11 11 10 10 11 12 13 14 16 18 19 21 22 22 23 24 25 27 28 29 30 31 31 32 33 34 35 36 38 39 38 37 39 42 44
28 28 27 26 26 28 28 28 28 29 29 30 32 31 29 28 28 29 29 29 29 28 27 26 27 26 23 21 19 17 15 13 12 10 10 10 11 13 14 15 15 15 15 15 15 15 15 15 15 14 13 12 11 11 11 11 12 14 16 17 19 21 22 22 22 23 24 25 27 28 29 30 31 32 33 34 34 35 35 37 38 37 37 39 41
27 27 26 26 27 27 28 27 28 28 28 29 31 32 29 27 27 28 29 29 30 30 28 28 28 26 23 21 20 18 17 16 14 12 11 11 11 13 15 16 16 16 16 16 16 15 15 15 15 14 14 13 12 12 12 12 12 13 15 17 18 20 21 21 22 22 23 24 25 27 29 30 30 31 32 32 33 34 34 35 36 37 36 35 37
26 26 26 27 28 28 27 27 27 26 27 28 30 31 29 27 27 27 28 29 29 28 26 26 26 24 22 21 20 19 18 17 16 14 12 12 13 14 16 16 16 16 17 17 16 15 15 14 14 13 13 13 13 12 12 13 13 13 15 16 17 18 19 20 21 21 21 22 24 26 27 29 30 31 31 31 31 32 33 33 34 35 35 34 34
26 26 26 28 29 28 28 27 25 24 25 27 29 30 30 28 27 27 28 28 28 27 26 26 26 24 24 23 22 20 19 18 17 16 15 15 16 16 16 15 15 16 17 16 15 14 13 12 12 12 12 13 13 13 13 13 14 14 14 15 16 16 17 19 20 20 20 21 23 25 26 28 29 30 31 31 31 31 31 31 32 33 34 33 32
27 26 26 27 28 28 29 27 23 21 23 25 27 29 30 29 28 28 28 27 28 28 28 28 27 26 25 25 23 22 21 19 19 19 18 17 17 16 15 15 15 15 15 13 12 12 12 10 10 12 13 14 15 15 15 15 14 14 14 14 14 14 15 17 18 19 20 20 21 23 26 27 28 29 29 30 30 30 30 30 31 32 33 33 32
26 26 25 27 28 28 29 27 22 19 21 24 27 28 30 30 30 29 27 26 27 29 29 29 29 28 27 25 23 23 22 22 21 20 19 18 17 16 15 15 15 15 14 11 10 11 11 11 11 13 14 16 17 18 17 16 15 14 14 14 13 13 14 15 17 19 20 20 21 22 25 27 28 29 29 28 29 29 29 29 29 30 31 32 31
23 24 24 26 27 28 29 27 23 19 20 24 26 26 28 31 31 29 26 24 25 27 28 29 30 30 27 24 23 22 21 21 20 19 18 18 16 15 15 15 15 14 13 12 11 12 12 12 12 13 15 17 18 18 16 15 14 14 13 13 13 13 14 15 17 18 19 20 21 22 24 26 28 29 29 28 28 28 28 28 27 27 28 30 30
22 22 24 25 27 28 28 28 25 20 19 23 25 24 25 28 30 29 26 23 23 26 28 30 31 30 26 23 22 21 20 19 18 18 18 17 16 15 15 14 13 13 13 13 13 14 14 14 14 15 16 17 17 16 14 13 13 13 12 12 13 14 15 16 17 19 19 20 22 23 24 25 28 29 30 29 28 26 26 26 26 26 26 27 29
23 23 24 25 27 27 27 27 25 20 19 22 24 22 23 26 29 29 27 24 24 26 28 30 30 28 24 22 21 21 21 20 19 19 18 17 16 15 15 14 14 14 15 15 15 15 15 16 15 16 16 16 14 13 12 11 11 11 11 12 14 15 17 18 19 20 21 21 23 24 25 25 27 28 29 29 28 27 25 24 24 24 24 25 27
23 23 24 24 25 25 25 25 23 21 20 22 22 21 22 25 28 29 27 24 23 25 27 29 29 26 22 21 21 21 22 22 21 20 18 17 17 16 16 15 15 16 16 16 16 16 16 17 16 16 15 13 12 11 11 10 11 11 13 15 16 17 19 20 20 21 23 24 25 26 26 25 26 27 27 28 28 28 27 25 23 23 23 23 24
24 23 24 23 23 23 24 24 23 21 20 20 20 20 22 25 27 28 27 24 23 24 26 27 27 24 21 20 20 21 22 22 21 19 18 17 17 17 16 15 15 16 16 16 16 17 18 18 17 16 15 13 12 11 11 12 12 14 15 16 18 18 19 20 21 22 23 24 25 26 26 25 25 25 25 26 27 27 27 26 24 22 22 22 22
25 24 24 24 23 22 22 22 22 21 19 19 21 22 24 26 27 27 25 23 22 23 25 26 25 22 20 20 20 21 21 21 19 18 17 17 17 18 17 17 16 16 16 17 17 18 18 19 18 17 15 14 13 13 13 13 14 15 16 18 19 20 20 21 22 23 24 24 24 24 25 24 24 23 24 24 25 26 26 26 24 23 21 21 21
24 24 25 25 24 22 21 21 22 21 20 21 22 23 24 25 26 25 24 23 23 24 26 26 24 22 20 20 20 20 20 20 20 19 18 18 18 18 18 18 18 18 17 17 16 16 16 17 17 17 16 15 15 15 15 15 16 17 18 19 20 21 21 22 23 23 23 23 23 23 24 24 23 23 22 23 23 24 25 25 24 23 22 21 21
24 25 25 25 24 23 22 21 21 20 20 21 22 21 21 22 23 23 23 23 23 25 26 26 23 21 21 20 20 20 20 20 20 20 20 20 19 18 18 18 18 18 18 17 16 16 15 16 16 17 18 19 19 19 19 18 18 19 19 20 21 22 22 23 23 22 21 20 21 22 23 23 24 23 22 22 23 23 24 24 23 22 22 21 21
25 25 25 25 25 25 24 22 21 21 20 20 20 20 20 21 22 22 22 22 22 23 25 24 22 21 20 20 20 20 20 20 20 21 22 22 20 19 18 18 18 18 18 18 18 17 17 18 18 19 20 21 20 20 20 19 19 20 20 21 22 23 23 23 23 22 19 19 20 21 22 23 23 23 23 23 23 23 23 23 23 22 22 21 21
24 25 25 25 26 26 24 21 21 21 20 19 19 20 20 21 21 21 20 20 20 20 21 21 21 20 20 20 20 20 20 20 20 20 21 22 21 20 19 19 19 19 19 19 19 18 18 18 18 18 19 19 20 20 20 20 21 22 23 23 24 24 23 23 22 20 18 18 19 20 21 22 23 23 23 23 23 24 24 24 22 22 22 22 21
21 24 24 24 25 25 22 19 19 19 19 19 20 20 19 19 18 18 18 18 19 20 21 21 21 20 20 20 20 20 20 20 20 20 21 22 22 21 21 20 20 20 20 19 17 17 17 18 18 19 20 20 21 21 22 22 23 24 24 24 24 24 24 23 21 19 18 18 19 19 21 22 23 24 24 23 23 23 24 24 24 23 23 23 23
20 22 22 23 23 22 20 18 18 19 20 20 20 20 19 18 17 17 17 19 20 21 22 21 20 19 19 18 19 19 19 19 19 19 19 20 20 20 20 20 19 18 17 17 17 17 18 18 19 19 20 20 21 22 22 22 23 23 23 23 23 23 23 22 21 19 18 19 19 20 21 22 24 25 25 25 25 24 24 24 24 25 25 25 24
Wind_Direction
208 207 204 206 211 216 220 227 231 233 239 244 242 243 252 258 259 245 219 204 197 193 189 182 179 175 165 152 132 115 102 87 74 62 51 45 47 52 60 65 61 59 56 49 44 35 25 22 19 20 20 17 13 10 9 9 9 9 6 4 4 359 353 348 339 339 347 351 347 348 349 346 346 349 347 345 345 343 342 341 339 337 336 335 334
205 204 205 208 213 219 224 227 229 233 237 238 238 243 251 253 248 231 209 199 191 184 184 182 177 172 164 154 142 128 111 93 75 62 52 46 53 69 75 73 66 61 56 47 41 35 28 25 22 23 21 15 11 8 8 10 8 9 7 3 3 2 355 350 343 338 342 348 349 348 348 347 346 349 348 345 344 343 341 340 338 337 335 334 334
206 207 210 213 217 221 224 226 228 232 233 235 239 243 246 245 236 217 204 197 189 180 180 183 180 173 165 160 151 136 117 98 80 65 57 54 64 82 86 79 68 59 50 44 41 36 30 26 23 22 18 11 9 9 9 11 8 7 7 4 1 2 359 352 346 340 339 344 348 347 347 348 348 349 348 346 344 342 340 339 338 336 335 334 333
211 214 215 217 221 222 224 226 226 228 231 235 239 240 240 235 221 206 199 195 191 186 184 183 180 174 166 162 155 142 126 105 91 75 66 65 73 86 88 78 64 49 41 39 39 36 30 27 23 18 14 9 8 11 11 10 9 7 5 4 1 360 358 354 349 344 340 341 346 347 347 348 349 350 349 346 343 341 339 338 337 336 336 335 333
216 219 219 220 223 222 223 224 225 229 233 236 237 236 232 223 209 200 195 193 195 192 188 184 178 171 166 164 161 153 143 124 101 87 78 73 77 85 85 72 48 36 37 36 35 33 28 24 20 14 10 9 10 12 12 10 8 7 4 2 1 359 357 355 351 348 344 342 344 347 349 349 349 350 350 346 342 340 338 338 338 337 336 335 333
217 218 220 223 223 221 222 224 228 232 235 234 232 228 222 213 204 197 192 194 197 192 187 183 177 171 170 170 168 163 157 141 114 100 90 76 80 87 84 62 41 32 34 34 31 29 25 19 15 11 9 11 13 12 11 9 7 5 3 1 359 358 356 355 353 350 347 346 347 348 350 351 349 349 350 347 343 341 339 338 338 339 339 337 336
218 218 222 223 222 222 225 228 231 232 232 228 224 218 211 204 199 195 192 191 191 189 187 183 178 175 175 176 172 166 164 151 124 116 100 79 80 88 83 61 43 36 36 34 29 25 21 15 10 10 11 13 13 11 8 8 7 5 2 359 358 357 356 355 354 352 350 350 351 351 351 351 350 348 347 346 344 343 343 340 339 340 341 339 336
218 220 223 222 222 225 226 228 229 227 224 218 212 208 203 198 194 193 192 189 186 187 188 186 182 180 178 178 176 170 166 156 135 121 101 82 83 82 75 61 45 42 39 32 26 22 17 12 8 9 14 14 12 9 6 5 5 5 2 359 357 357 357 356 354 353 353 353 354 353 351 351 350 348 347 347 346 345 346 343 339 339 341 338 335
219 221 223 223 224 226 225 223 222 218 212 206 201 198 196 194 192 191 191 190 187 186 187 185 185 187 183 179 177 172 166 160 147 132 115 96 88 81 76 65 51 44 37 28 24 20 14 10 9 9 12 12 8 7 7 6 4 4 2 360 358 358 357 356 355 355 355 356 356 355 352 351 350 349 349 349 347 344 345 345 340 339 339 336 336
221 221 223 223 223 223 220 218 216 210 203 197 194 194 193 192 192 190 191 191 188 186 185 184 183 185 185 182 177 172 168 166 163 159 159 141 101 91 83 72 58 46 38 30 22 17 12 8 9 9 9 8 6 7 9 9 7 6 4 1 360 358 356 356 357 357 357 357 358 356 352 350 351 352 352 350 347 346 346 345 342 341 340 337 337
223 221 222 222 221 219 216 215 212 205 197 193 193 193 193 191 192 192 191 188 185 184 185 185 183 182 182 181 177 172 171 171 177 186 180 161 126 107 93 74 59 46 38 30 20 13 10 7 7 8 7 6 6 7 9 10 9 8 7 5 3 360 358 357 358 359 358 358 358 357 353 351 352 354 354 351 350 349 348 347 345 343 342 339 337
222 221 222 220 218 216 213 212 208 201 196 193 193 193 193 193 194 194 191 186 184 184 184 185 186 183 180 179 178 176 177 180 185 192 186 167 146 126 104 75 54 44 33 25 18 10 5 4 5 5 4 5 6 8 10 11 11 9 8 7 6 5 3 0 360 1 1 359 358 358 356 354 355 357 357 354 352 350 349 349 349 346 342 339 336
224 223 222 220 217 214 212 211 205 199 196 194 194 194 194 194 195 193 190 186 184 184 185 185 186 184 180 179 180 180 180 185 190 192 188 175 161 151 134 101 56 37 25 15 10 4 359 359 1 1 1 4 7 8 9 11 11 10 9 7 8 8 7 5 4 4 4 1 358 358 359 359 358 359 360 357 354 352 350 350 350 347 341 339 337
228 224 221 218 215 212 210 208 203 199 196 194 194 195 195 195 195 193 191 188 186 186 187 187 185 184 181 179 182 184 183 188 191 188 187 185 174 165 151 128 75 31 15 3 359 355 352 353 355 356 358 3 7 9 10 10 9 9 9 8 8 8 8 8 8 8 8 6 2 359 1 2 1 1 1 360 357 354 352 351 351 347 342 342 341
228 223 219 215 211 209 208 206 202 199 195 193 194 194 195 197 195 191 188 186 187 188 188 188 186 184 183 180 181 186 186 188 188 182 182 186 180 169 157 136 107 27 355 347 348 347 344 347 350 351 355 1 6 9 9 8 7 7 8 8 7 8 9 10 10 10 10 10 7 1 360 1 3 3 3 3 1 358 356 355 353 350 347 347 346
226 221 217 213 209 207 207 205 202 199 195 194 194 194 195 196 194 191 187 184 186 187 186 187 186 185 185 181 180 185 189 186 182 177 175 176 173 166 158 147 145 183 317 324 333 337 338 343 346 348 352 359 4 8 8 6 5 5 6 7 7 6 9 11 12 11 12 12 10 5 1 0 2 4 6 6 4 1 1 0 358 356 353 350 347
222 219 216 213 209 209 209 207 202 199 196 195 194 193 194 195 194 192 190 188 188 187 186 186 185 186 187 182 180 184 188 184 179 175 173 169 166 165 160 158 170 204 268 301 320 326 332 340 343 345 351 357 3 6 6 4 4 4 4 5 5 5 7 9 10 12 14 14 12 9 5 3 3 5 8 10 9 6 5 3 1 360 356 350 346
221 220 217 212 207 207 208 207 204 199 198 198 196 193 193 195 194 191 190 192 190 187 187 186 185 185 185 183 182 182 185 185 180 176 173 171 170 167 165 169 180 201 238 280 307 318 328 337 340 344 351 357 2 5 5 3 2 2 2 3 3 4 5 5 6 10 13 15 14 13 11 8 6 6 9 12 12 11 9 7 4 1 357 352 348
221 220 217 209 204 207 209 209 208 204 201 201 199 196 194 195 194 190 188 192 191 187 187 188 188 186 183 183 182 180 182 185 182 178 177 177 176 171 167 172 179 191 221 252 288 312 328 333 336 344 352 356 360 3 4 3 1 360 360 360 1 3 4 3 4 6 9 13 14 14 13 12 9 8 10 12 14 15 14 11 9 5 0 356 354
221 220 218 209 206 213 214 210 211 211 209 206 201 199 199 198 196 193 191 190 190 190 189 189 190 189 184 183 183 180 181 183 183 182 182 180 177 172 169 172 172 178 200 219 274 310 321 326 334 347 353 355 358 1 2 1 359 358 358 359 0 1 1 2 4 5 7 10 13 13 13 12 11 10 10 12 15 16 16 15 13 10 6 1 0
222 221 218 211 209 215 215 212 210 209 209 209 205 203 204 204 202 199 196 193 191 191 191 190 191 191 187 184 184 182 181 183 184 185 183 180 176 171 171 171 165 163 180 188 307 309 308 320 336 349 353 353 356 359 0 360 358 357 357 358 359 358 357 359 2 5 6 8 11 12 13 12 11 11 11 11 14 16 17 17 16 15 13 8 4
225 223 219 213 212 215 215 212 208 205 206 208 208 207 207 208 208 204 199 198 194 193 193 192 191 191 188 185 186 185 183 185 187 187 185 182 177 175 175 171 161 155 162 236 292 294 300 322 341 350 352 353 355 356 358 358 356 355 357 358 358 357 356 358 0 4 6 7 9 11 12 11 11 11 11 11 12 14 16 17 17 17 18 17 12
227 224 218 213 213 214 212 208 205 204 206 209 211 211 209 208 209 207 203 200 197 194 194 194 193 191 189 187 186 185 186 188 189 189 187 184 180 180 179 170 160 160 205 258 277 289 306 330 343 347 350 353 354 354 356 355 354 354 356 357 358 357 357 358 1 4 6 7 8 10 10 10 10 11 11 11 11 13 14 15 16 17 18 20 20
227 223 217 213 213 214 210 207 206 206 206 209 211 212 212 209 209 208 204 201 199 197 195 196 195 193 191 190 188 188 189 190 191 191 190 187 184 183 181 177 171 182 221 256 277 293 313 333 341 344 348 351 353 354 355 354 353 354 355 357 358 358 358 360 2 5 7 8 9 9 9 9 9 10 12 11 10 12 14 14 16 16 16 19 22
226 224 219 215 214 213 209 208 210 208 206 208 211 211 211 211 209 207 205 202 201 199 198 199 198 195 193 192 190 190 193 193 193 193 191 190 189 188 187 189 191 198 227 257 276 291 312 331 338 341 347 350 353 355 356 355 355 355 356 358 359 360 1 2 3 5 8 9 9 7 7 8 8 9 12 12 12 12 13 15 16 17 17 17 20
226 224 221 216 215 214 210 210 212 208 205 209 212 212 213 213 209 207 205 203 202 201 201 201 199 197 195 193 192 193 195 195 195 195 193 192 192 192 194 200 206 217 241 260 274 289 308 327 334 338 345 350 353 356 358 359 359 358 358 360 1 2 3 4 4 5 7 9 9 7 6 6 6 9 12 13 14 13 13 14 16 18 18 17 17
226 225 222 218 216 215 213 213 212 208 206 209 212 214 217 217 212 208 206 205 202 202 203 203 202 199 196 194 194 195 197 197 199 199 197 195 196 197 200 209 217 229 253 270 280 289 300 316 327 333 340 347 352 355 357 360 1 0 360 1 2 4 5 5 5 5 6 8 8 7 6 6 6 8 11 14 15 15 15 15 17 18 19 18 17
226 225 223 221 219 216 215 215 214 210 208 210 213 215 218 218 214 210 210 210 207 205 204 205 205 203 199 197 198 199 200 202 204 203 202 201 203 205 208 215 225 238 261 277 283 288 295 306 317 323 332 341 347 351 356 359 1 2 2 2 3 4 4 5 6 6 6 7 8 8 7 7 7 7 9 12 15 15 15 16 17 18 19 20 18
227 225 224 223 221 217 216 218 217 211 208 211 214 217 219 219 215 213 214 215 215 213 212 209 208 205 202 202 204 206 205 206 206 209 211 212 212 215 220 227 236 245 258 270 277 283 290 298 306 313 322 331 338 346 352 356 1 5 6 4 4 5 5 5 6 7 6 6 7 8 8 7 7 7 8 10 13 15 16 16 17 18 20 21 20
227 224 224 224 223 220 218 217 215 210 209 211 213 215 217 219 218 217 217 215 213 214 216 216 213 209 207 208 210 211 209 204 205 213 219 220 221 225 229 238 248 255 261 266 270 276 283 289 295 302 310 320 330 340 347 353 359 4 7 7 6 6 7 7 6 6 6 5 5 7 8 8 8 8 8 8 10 13 15 16 17 18 20 21 21
229 226 225 226 225 222 220 218 215 211 211 213 214 214 213 213 214 215 215 213 210 210 213 214 213 214 217 217 213 209 205 203 207 216 223 226 229 233 236 242 251 258 261 264 266 272 279 284 288 294 302 311 322 331 339 347 353 356 1 5 5 4 4 5 6 6 5 5 5 6 7 8 8 8 8 7 7 9 12 15 17 18 19 20 21
232 230 230 230 228 226 224 223 218 214 212 212 214 214 212 211 211 209 208 209 211 211 211 210 211 215 219 217 211 206 205 210 218 227 233 236 240 244 245 247 252 256 261 264 266 270 275 279 283 290 296 303 314 323 331 339 345 348 352 356 358 359 358 359 2 3 3 3 3 4 6 7 7 8 9 8 7 7 8 12 15 17 17 18 20
236 236 235 233 231 227 223 221 218 215 214 213 214 214 214 213 213 209 206 208 210 209 209 211 213 213 213 213 212 211 210 217 228 238 243 244 247 250 251 252 255 258 261 264 267 269 272 276 281 287 292 298 306 313 320 328 336 340 343 346 349 351 352 352 354 358 360 0 1 2 3 4 5 6 8 9 8 7 6 7 11 15 16 15 16
239 238 238 237 233 227 222 220 218 217 217 217 217 217 217 216 217 214 211 208 207 207 209 213 213 210 209 213 217 215 213 218 225 234 244 250 251 252 253 254 257 260 263 267 270 272 273 275 280 286 290 294 300 305 310 318 327 333 336 339 342 345 346 347 349 352 355 357 358 359 1 2 2 3 5 7 9 8 7 6 6 10 14 15 14
237 237 238 239 237 231 226 223 221 219 219 219 220 221 221 220 220 219 217 213 211 210 212 212 210 208 212 219 220 216 215 220 224 231 242 252 254 254 254 256 261 265 268 271 274 276 277 278 281 286 289 291 296 301 305 310 318 325 330 334 338 341 343 345 347 349 351 354 356 357 358 359 360 1 2 4 6 8 8 6 5 5 9 13 14
237 237 238 238 237 233 228 224 223 222 222 220 221 224 226 225 224 223 221 220 219 218 217 215 212 213 218 222 220 217 218 224 230 236 246 255 256 255 255 259 264 268 270 272 275 277 278 280 283 287 289 292 295 299 302 306 312 318 323 328 333 337 340 344 347 349 351 353 354 356 356 356 357 358 359 1 3 6 7 7 6 5 5 8 12
242 242 241 238 235 231 225 222 224 227 227 224 223 225 227 228 227 225 223 222 222 223 223 220 217 219 224 223 220 218 221 227 233 239 246 253 256 257 259 261 264 266 268 271 274 276 279 283 287 290 292 294 296 298 300 304 309 313 316 321 327 331 336 341 346 348 350 352 353 354 354 354 354 355 357 358 360 3 6 7 7 7 6 5 8
246 246 244 240 237 231 223 220 224 229 228 227 226 227 228 228 226 224 224 224 221 221 222 220 219 223 228 227 223 222 225 230 234 240 246 252 256 260 262 262 262 262 264 265 267 272 279 287 294 295 294 293 293 294 296 300 305 308 310 314 319 325 330 337 342 345 346 348 351 352 352 352 352 352 354 355 357 359 2 4 5 6 7 6 6
244 245 243 242 241 235 226 222 226 230 227 225 225 226 228 229 227 224 226 229 225 221 222 221 220 224 229 230 228 228 229 233 239 244 249 253 257 259 260 259 257 256 256 256 261 270 279 288 295 296 294 291 289 289 291 295 299 303 306 308 311 318 325 331 337 341 342 343 345 348 349 349 350 351 351 352 354 356 358 1 2 2 3 5 6
246 246 244 243 242 237 229 225 228 231 227 224 223 224 226 229 228 226 230 235 231 225 224 223 223 225 230 233 233 232 235 241 248 253 255 255 255 256 256 255 253 252 252 255 262 271 279 286 292 294 293 291 288 286 287 290 294 297 301 302 303 309 318 326 331 335 337 338 340 343 345 346 347 349 350 350 351 353 355 358 358 358 358 0 3
250 249 247 246 243 238 231 227 230 234 232 226 223 223 226 229 228 229 235 240 235 228 225 225 225 227 232 236 236 237 243 251 258 261 260 256 253 252 251 250 249 250 253 258 264 270 276 281 287 291 293 293 290 284 281 283 287 290 293 295 297 303 313 320 324 325 327 329 332 335 338 340 342 344 347 348 349 350 352 354 356 356 356 356 359
252 250 247 245 242 237 233 229 230 237 237 229 225 226 230 231 229 229 234 239 236 229 226 226 227 231 236 239 238 241 248 255 259 261 259 253 249 248 248 248 251 254 258 262 266 271 274 277 281 285 288 289 286 278 272 274 278 283 287 291 295 301 308 313 317 319 321 322 323 325 329 333 335 338 342 345 346 347 348 350 353 355 355 355 355
255 252 249 245 242 239 235 231 231 236 236 231 228 229 232 233 232 232 236 240 239 233 228 226 229 234 239 241 242 246 250 253 254 255 253 249 246 247 248 252 258 260 261 264 268 272 273 274 275 279 281 279 273 267 266 270 276 282 287 292 297 302 307 312 316 320 321 321 320 320 323 325 328 331 335 339 341 343 345 346 348 351 354 355 354
255 253 250 245 242 239 235 231 232 236 235 231 230 230 230 230 232 234 237 241 241 235 229 227 231 236 240 244 247 249 249 248 247 248 248 247 248 250 253 257 262 263 263 267 271 272 272 271 271 272 272 267 262 262 265 271 277 282 286 292 297 302 307 312 316 319 320 319 318 320 321 321 322 325 329 332 335 339 341 343 345 346 349 352 353
254 252 248 242 237 233 232 231 232 234 233 231 231 232 230 230 232 234 238 241 241 234 228 228 233 238 242 246 250 250 248 246 245 245 248 251 254 256 257 259 262 264 266 270 273 272 270 268 267 266 265 262 262 266 270 274 278 280 284 290 295 300 305 309 313 317 316 313 313 315 317 319 320 322 324 326 328 332 336 339 341 343 345 348 349
254 252 249 244 236 229 230 233 234 232 229 228 228 228 228 229 231 234 237 239 237 230 225 227 234 240 243 245 248 249 249 249 247 248 251 256 260 263 263 262 263 265 269 271 271 269 268 266 263 262 262 265 268 272 275 278 280 281 284 289 293 297 301 306 310 313 311 308 306 308 309 312 315 317 319 321 323 325 328 332 334 337 340 343 344
253 252 250 246 237 230 230 235 236 233 228 224 223 223 224 227 229 233 236 237 234 227 225 229 236 240 240 241 244 248 251 252 251 252 255 258 261 263 264 264 265 267 268 268 265 263 264 264 263 262 265 269 274 277 278 279 279 280 284 289 292 295 299 303 305 307 305 303 305 308 309 309 311 312 312 315 317 319 321 324 327 330 333 337 340
249 249 249 244 237 232 233 236 235 232 229 224 219 218 220 224 229 234 236 235 231 228 228 232 236 238 239 242 246 250 254 255 256 256 257 258 259 261 264 266 267 267 267 266 264 264 264 265 266 267 268 270 273 276 276 277 277 279 283 288 292 295 297 299 300 301 300 299 304 310 313 314 315 315 313 312 312 312 314 316 319 322 324 327 332
248 247 245 242 236 235 237 237 234 230 226 221 218 217 220 227 234 238 237 234 232 231 231 232 234 237 241 246 249 253 256 258 259 261 260 258 257 258 261 264 266 267 269 271 270 268 267 266 265 267 269 270 272 273 274 275 276 278 282 287 290 292 294 295 296 296 295 296 300 306 310 313 316 318 318 317 315 312 311 311 313 315 316 317 321
248 244 242 239 236 235 237 238 234 228 222 219 218 220 224 231 235 232 228 228 228 227 227 229 234 241 248 252 256 259 260 262 265 267 265 260 257 257 260 264 267 269 271 271 268 264 263 264 265 267 270 272 274 275 276 278 280 282 284 287 289 290 291 292 291 290 291 295 298 300 302 306 310 313 315 316 316 314 314 314 313 312 310 310 311
247 243 240 237 235 234 234 233 228 222 218 217 219 222 227 229 226 220 218 220 221 220 222 228 239 249 256 260 264 267 267 267 270 271 266 261 259 259 260 263 265 266 266 265 264 264 265 267 268 270 272 274 276 278 280 283 285 285 286 288 289 290 290 289 286 284 285 289 293 294 296 298 302 305 307 309 310 311 313 314 314 313 311 309 307
Height
1527 1529 1531 1533 1535 1537 1539 1540 1541 1542 1542 1543 1545 1546 1547 1548 1548 1550 1551 1552 1553 1553 1554 1554 1555 1556 1556 1557 1558 1558 1558 1558 1558 1558 1558 1558 1557 1557 1557 1557 1557 1556 1556 1556 1556 1556 1555 1555 1554 1554 1554 1553 1552 1551 1550 1549 1548 1547 1545 1543 1542 1540 1537 1535 1532 1527 1525 1525 1522 1518 1516 1512 1509 1507 1503 1499 1497 1494 1491 1487 1484 1480 1476 1472 1468
1527 1528 1531 1532 1535 1536 1538 1539 1540 1540 1541 1542 1544 1545 1546 1547 1548 1549 1551 1552 1552 1553 1554 1554 1555 1556 1557 1557 1558 1558 1559 1559 1559 1559 1559 1558 1558 1558 1558 1557 1557 1557 1557 1557 1557 1556 1556 1555 1555 1554 1554 1553 1552 1551 1550 1549 1548 1546 1545 1543 1541 1540 1537 1534 1531 1526 1522 1521 1519 1516 1514 1511 1507 1504 1501 1497 1493 1490 1487 1484 1480 1477 1473 1469 1464
1526 1528 1530 1532 1533 1535 1536 1538 1539 1539 1540 1542 1543 1545 1546 1547 1548 1549 1550 1551 1552 1553 1553 1554 1555 1556 1557 1558 1558 1559 1559 1559 1559 1559 1559 1559 1559 1558 1558 1558 1558 1558 1558 1558 1557 1557 1556 1556 1555 1554 1554 1553 1553 1552 1550 1549 1547 1546 1544 1543 1540 1539 1538 1535 1531 1527 1522 1519 1517 1514 1511 1509 1505 1502 1499 1495 1491 1487 1484 1480 1477 1473 1469 1465 1461
1526 1527 1529 1531 1532 1534 1535 1536 1538 1538 1540 1541 1542 1544 1545 1547 1548 1549 1550 1551 1552 1552 1553 1554 1555 1556 1557 1558 1558 1559 1559 1559 1559 1559 1559 1559 1559 1559 1559 1558 1559 1559 1558 1558 1558 1557 1557 1556 1555 1555 1554 1554 1553 1551 1550 1548 1547 1545 1543 1542 1540 1538 1537 1535 1532 1528 1523 1518 1516 1514 1510 1507 1504 1500 1496 1492 1489 1486 1482 1478 1474 1470 1465 1461 1457
1525 1526 1528 1530 1531 1533 1534 1535 1536 1537 1539 1540 1542 1544 1545 1546 1547 1548 1550 1551 1551 1552 1553 1554 1555 1556 1557 1558 1558 1559 1559 1559 1560 1559 1559 1559 1559 1559 1559 1559 1559 1559 1559 1558 1558 1558 1557 1556 1556 1555 1554 1554 1552 1551 1550 1548 1546 1545 1543 1541 1540 1538 1536 1534 1531 1528 1524 1519 1515 1513 1510 1505 1502 1499 1495 1490 1485 1481 1478 1475 1472 1467 1461 1456 1453
1524 1526 1527 1529 1530 1531 1532 1534 1535 1537 1538 1540 1541 1543 1544 1545 1547 1548 1549 1550 1551 1552 1553 1554 1555 1556 1557 1558 1558 1559 1559 1559 1559 1559 1559 1559 1560 1560 1560 1559 1559 1559 1559 1559 1558 1558 1557 1556 1556 1555 1554 1553 1552 1550 1549 1548 1546 1544 1543 1541 1539 1537 1535 1533 1530 1527 1524 1520 1515 1511 1508 1504 1500 1496 1494 1490 1484 1478 1472 1468 1466 1463 1458 1451 1446
1522 1524 1526 1527 1528 1530 1531 1533 1534 1535 1537 1538 1540 1541 1543 1545 1546 1548 1549 1550 1551 1552 1553 1554 1555 1556 1557 1557 1558 1558 1559 1559 1559 1559 1559 1559 1560 1560 1560 1560 1560 1559 1559 1559 1558 1558 1558 1557 1556 1556 1555 1553 1551 1550 1549 1547 1546 1545 1543 1541 1539 1537 1534 1532 1529 1526 1523 1519 1515 1511 1506 1503 1499 1495 1492 1488 1484 1479 1472 1464 1458 1456 1454 1448 1442
1521 1523 1524 1526 1527 1528 1530 1531 1533 1534 1536 1537 1539 1540 1542 1544 1546 1547 1548 1549 1550 1551 1552 1553 1554 1555 1556 1557 1558 1558 1558 1558 1559 1559 1559 1560 1560 1560 1560 1560 1560 1560 1559 1559 1559 1558 1558 1558 1557 1556 1555 1553 1552 1551 1549 1548 1546 1545 1543 1541 1538 1536 1533 1531 1528 1525 1522 1518 1514 1510 1506 1502 1498 1494 1489 1485 1479 1475 1472 1467 1459 1452 1449 1446 1441
1519 1521 1522 1524 1525 1527 1528 1530 1531 1532 1534 1535 1537 1539 1541 1543 1544 1546 1547 1548 1549 1551 1552 1553 1554 1555 1556 1557 1557 1558 1558 1558 1558 1559 1559 1560 1560 1560 1560 1560 1560 1560 1560 1559 1559 1559 1558 1558 1557 1556 1554 1554 1553 1552 1550 1549 1547 1545 1543 1541 1538 1535 1533 1530 1527 1524 1520 1517 1513 1509 1505 1501 1497 1492 1487 1483 1479 1474 1470 1466 1459 1451 1447 1444 1439
1517 1519 1521 1522 1524 1525 1526 1528 1529 1531 1532 1534 1536 1538 1540 1542 1543 1545 1546 1547 1549 1550 1552 1553 1554 1555 1555 1556 1557 1557 1557 1558 1558 1559 1559 1560 1560 1560 1560 1560 1560 1560 1560 1560 1560 1559 1559 1558 1557 1556 1555 1554 1553 1552 1551 1550 1548 1546 1544 1541 1538 1535 1532 1530 1527 1523 1520 1516 1513 1509 1504 1500 1497 1492 1488 1484 1480 1475 1469 1463 1456 1449 1445 1441 1436
1515 1517 1519 1520 1521 1523 1524 1526 1527 1529 1531 1533 1535 1537 1539 1540 1542 1544 1545 1546 1548 1549 1551 1552 1553 1554 1555 1555 1556 1556 1557 1557 1558 1559 1559 1560 1560 1560 1560 1561 1561 1560 1560 1560 1560 1560 1559 1558 1557 1557 1556 1555 1554 1553 1552 1551 1549 1547 1545 1543 1540 1536 1533 1529 1526 1524 1520 1517 1513 1510 1505 1501 1497 1493 1488 1483 1479 1474 1468 1462 1456 1448 1444 1440 1434
1513 1515 1517 1518 1519 1521 1522 1524 1526 1527 1529 1531 1533 1536 1538 1539 1541 1543 1544 1546 1547 1548 1550 1551 1552 1553 1554 1555 1556 1556 1557 1557 1558 1559 1559 1559 1560 1560 1560 1560 1561 1561 1561 1561 1561 1560 1559 1559 1558 1557 1556 1555 1554 1553 1552 1551 1549 1547 1546 1544 1541 1538 1535 1531 1527 1524 1521 1517 1514 1511 1507 1502 1497 1493 1488 1482 1477 1473 1467 1462 1457 1450 1446 1443 1437
1512 1513 1515 1516 1517 1519 1521 1522 1524 1526 1528 1530 1532 1535 1537 1539 1540 1542 1543 1544 1546 1547 1549 1550 1551 1552 1553 1554 1555 1556 1556 1557 1558 1558 1559 1559 1559 1560 1560 1561 1561 1561 1561 1561 1561 1560 1559 1559 1558 1557 1557 1556 1555 1554 1552 1551 1549 1548 1546 1544 1542 1539 1536 1533 1530 1526 1522 1519 1515 1512 1508 1503 1498 1494 1489 1483 1477 1471 1466 1461 1457 1452 1447 1443 1438
1509 1511 1512 1514 1515 1517 1519 1520 1522 1524 1526 1528 1531 1533 1536 1538 1539 1541 1542 1543 1545 1546 1547 1549 1550 1551 1552 1554 1554 1555 1556 1557 1558 1558 1558 1559 1559 1560 1560 1561 1561 1561 1561 1561 1561 1560 1559 1559 1558 1558 1557 1556 1555 1554 1552 1550 1549 1547 1545 1543 1541 1539 1536 1533 1530 1527 1524 1520 1516 1513 1510 1505 1500 1495 1490 1485 1479 1472 1466 1460 1456 1452 1447 1441 1436
1507 1508 1510 1511 1513 1514 1516 1518 1520 1522 1524 1527 1529 1532 1534 1536 1538 1539 1541 1542 1544 1545 1546 1548 1549 1550 1552 1553 1554 1555 1556 1557 1557 1558 1558 1558 1559 1560 1560 1560 1561 1561 1561 1561 1560 1560 1559 1559 1558 1558 1557 1556 1555 1554 1552 1550 1548 1547 1545 1543 1540 1538 1535 1532 1529 1526 1523 1520 1517 1514 1510 1506 1502 1497 1491 1486 1480 1475 1469 1463 1458 1453 1446 1439 1433
1503 1505 1507 1508 1510 1512 1514 1516 1518 1520 1522 1524 1527 1530 1532 1534 1536 1538 1540 1541 1542 1543 1545 1547 1548 1550 1551 1552 1553 1554 1555 1556 1557 1557 1557 1558 1558 1559 1560 1560 1560 1561 1561 1560 1560 1560 1559 1559 1558 1558 1557 1556 1555 1554 1552 1550 1548 1546 1544 1542 1540 1538 1535 1532 1530 1527 1523 1521 1518 1515 1511 1507 1503 1498 1493 1487 1481 1475 1469 1464 1457 1450 1443 1436 1430
1501 1502 1504 1506 1507 1510 1511 1513 1516 1518 1520 1523 1525 1527 1530 1532 1535 1537 1538 1540 1541 1542 1544 1546 1547 1549 1550 1551 1552 1553 1554 1555 1556 1556 1557 1557 1558 1558 1559 1559 1560 1560 1560 1560 1560 1559 1559 1558 1558 1558 1557 1556 1555 1553 1552 1550 1548 1546 1544 1542 1539 1537 1534 1532 1530 1527 1524 1521 1518 1515 1512 1508 1503 1499 1493 1487 1481 1474 1467 1460 1454 1448 1441 1435 1429
1499 1500 1502 1503 1506 1508 1511 1513 1515 1517 1519 1521 1524 1526 1528 1531 1533 1535 1537 1539 1540 1541 1543 1545 1546 1548 1549 1551 1552 1553 1554 1554 1555 1556 1556 1557 1557 1558 1558 1559 1559 1559 1560 1559 1559 1559 1558 1558 1558 1557 1556 1555 1554 1553 1551 1549 1547 1545 1543 1541 1538 1535 1532 1530 1528 1525 1523 1520 1517 1514 1511 1506 1502 1497 1492 1487 1481 1474 1467 1461 1455 1449 1442 1437 1431
1497 1499 1500 1502 1506 1511 1513 1516 1518 1519 1520 1521 1523 1525 1527 1529 1532 1534 1536 1538 1539 1541 1542 1544 1545 1547 1548 1550 1551 1551 1553 1554 1554 1555 1556 1556 1557 1557 1558 1558 1558 1559 1559 1559 1558 1558 1558 1558 1558 1557 1556 1555 1554 1552 1551 1549 1547 1545 1542 1540 1537 1534 1531 1528 1525 1523 1520 1518 1515 1512 1508 1505 1501 1496 1491 1486 1481 1475 1470 1464 1457 1450 1444 1439 1433
1495 1498 1499 1502 1507 1510 1512 1514 1517 1519 1521 1522 1524 1525 1526 1528 1531 1533 1535 1536 1538 1540 1541 1543 1545 1546 1547 1549 1550 1550 1551 1553 1554 1555 1555 1556 1556 1557 1557 1558 1558 1558 1558 1558 1558 1558 1558 1558 1557 1556 1556 1554 1553 1552 1550 1549 1547 1544 1542 1539 1536 1533 1531 1528 1525 1522 1519 1516 1513 1510 1507 1503 1500 1495 1490 1485 1480 1475 1470 1465 1458 1452 1446 1440 1435
1493 1496 1498 1502 1505 1508 1509 1511 1513 1516 1519 1522 1524 1525 1526 1528 1529 1531 1533 1535 1536 1538 1540 1542 1543 1545 1546 1547 1548 1549 1550 1551 1553 1554 1555 1555 1556 1556 1556 1557 1557 1557 1557 1557 1557 1557 1558 1557 1557 1556 1555 1554 1553 1551 1550 1548 1547 1544 1542 1539 1536 1534 1531 1528 1526 1523 1520 1516 1513 1510 1506 1503 1499 1494 1489 1484 1480 1475 1470 1464 1459 1454 1449 1442 1435
1492 1494 1497 1501 1504 1505 1507 1509 1511 1514 1517 1520 1523 1524 1525 1527 1528 1530 1532 1534 1535 1537 1538 1540 1542 1544 1545 1546 1547 1548 1549 1550 1552 1553 1554 1554 1555 1555 1556 1556 1556 1556 1556 1556 1557 1557 1557 1557 1556 1556 1555 1553 1552 1551 1549 1548 1546 1545 1542 1540 1537 1535 1532 1529 1526 1523 1519 1516 1512 1509 1505 1501 1497 1493 1488 1484 1479 1475 1470 1465 1461 1456 1451 1446 1439
1490 1493 1496 1499 1502 1503 1505 1507 1510 1513 1516 1518 1521 1522 1524 1525 1527 1528 1530 1532 1534 1536 1537 1539 1541 1543 1544 1545 1546 1547 1548 1549 1551 1552 1552 1553 1554 1554 1555 1555 1555 1555 1556 1556 1556 1556 1556 1556 1555 1555 1554 1553 1552 1550 1549 1547 1546 1544 1542 1540 1537 1535 1532 1529 1526 1523 1519 1516 1512 1508 1504 1500 1497 1492 1488 1484 1480 1475 1471 1466 1462 1457 1452 1448 1442
1489 1491 1494 1497 1500 1502 1504 1506 1508 1510 1513 1516 1518 1520 1522 1523 1525 1526 1529 1530 1532 1534 1535 1537 1539 1541 1543 1544 1545 1546 1547 1548 1549 1550 1551 1552 1553 1553 1554 1554 1554 1555 1555 1555 1556 1556 1555 1555 1555 1554 1553 1552 1551 1550 1548 1547 1545 1544 1542 1539 1537 1534 1532 1529 1526 1522 1519 1516 1512 1508 1504 1501 1497 1493 1490 1486 1482 1478 1474 1469 1464 1458 1453 1448 1443
1487 1489 1492 1495 1497 1500 1502 1504 1505 1508 1510 1513 1515 1517 1519 1521 1523 1524 1526 1528 1530 1532 1534 1536 1538 1540 1541 1543 1543 1545 1546 1547 1548 1549 1550 1551 1552 1552 1553 1553 1553 1554 1554 1554 1555 1555 1555 1554 1554 1554 1553 1552 1551 1549 1548 1546 1545 1543 1541 1539 1536 1534 1531 1528 1525 1522 1519 1515 1512 1509 1506 1502 1499 1496 1492 1489 1484 1479 1474 1469 1464 1459 1453 1448 1444
1485 1487 1490 1492 1495 1497 1499 1501 1503 1505 1508 1511 1513 1515 1517 1519 1521 1522 1524 1527 1529 1530 1532 1534 1536 1538 1540 1541 1542 1543 1545 1546 1547 1548 1549 1550 1550 1551 1552 1552 1552 1553 1553 1554 1554 1554 1554 1553 1553 1553 1552 1551 1550 1549 1547 1546 1544 1542 1540 1538 1536 1534 1531 1528 1525 1522 1519 1516 1513 1510 1507 1503 1500 1497 1494 1490 1485 1479 1474 1469 1463 1458 1452 1446 1441
1483 1485 1488 1490 1493 1495 1497 1499 1501 1503 1506 1508 1511 1513 1515 1517 1519 1520 1522 1524 1526 1528 1530 1532 1534 1536 1538 1540 1541 1542 1543 1545 1546 1547 1548 1548 1549 1550 1550 1551 1551 1552 1552 1552 1553 1553 1553 1552 1552 1552 1551 1551 1550 1548 1547 1545 1544 1542 1540 1538 1536 1534 1531 1528 1526 1523 1520 1517 1514 1511 1508 1505 1501 1497 1493 1489 1485 1480 1476 1470 1464 1459 1453 1447 1441
1481 1484 1486 1488 1490 1493 1495 1497 1499 1501 1504 1507 1509 1511 1513 1515 1517 1518 1520 1522 1523 1525 1528 1530 1532 1535 1537 1538 1540 1541 1542 1543 1544 1546 1546 1547 1548 1548 1549 1550 1550 1550 1551 1551 1551 1552 1551 1551 1551 1551 1551 1550 1549 1548 1547 1545 1543 1542 1540 1538 1536 1534 1531 1529 1527 1524 1521 1518 1515 1512 1508 1505 1501 1496 1492 1489 1485 1481 1477 1472 1467 1462 1456 1450 1443
1479 1482 1484 1486 1488 1491 1493 1495 1497 1499 1502 1505 1507 1510 1512 1514 1516 1518 1520 1521 1523 1525 1527 1529 1531 1534 1536 1537 1539 1540 1541 1542 1544 1545 1545 1546 1546 1547 1548 1548 1549 1549 1549 1550 1550 1550 1550 1550 1550 1550 1549 1549 1548 1547 1546 1544 1543 1541 1539 1537 1536 1533 1531 1529 1526 1524 1521 1518 1515 1512 1508 1505 1501 1497 1493 1489 1486 1482 1478 1474 1469 1464 1459 1453 1447
1477 1480 1482 1484 1486 1489 1491 1493 1495 1497 1500 1503 1506 1508 1510 1513 1515 1517 1519 1521 1523 1525 1527 1529 1531 1533 1535 1537 1538 1539 1541 1542 1543 1543 1543 1544 1545 1546 1546 1547 1547 1547 1548 1548 1549 1549 1549 1549 1548 1548 1548 1548 1547 1546 1545 1543 1542 1540 1539 1537 1535 1533 1531 1529 1526 1523 1521 1518 1515 1512 1508 1505 1501 1497 1494 1490 1486 1483 1480 1475 1471 1467 1461 1456 1451
1475 1477 1480 1482 1484 1487 1489 1491 1493 1495 1498 1500 1503 1505 1508 1511 1513 1515 1518 1520 1522 1524 1526 1529 1531 1532 1534 1536 1537 1538 1540 1541 1541 1541 1542 1543 1544 1544 1545 1545 1546 1546 1546 1546 1547 1547 1547 1547 1547 1547 1546 1546 1545 1545 1544 1542 1541 1539 1538 1537 1535 1533 1531 1528 1526 1523 1521 1518 1515 1512 1509 1505 1502 1498 1494 1491 1487 1484 1481 1477 1473 1469 1464 1460 1455
1473 1475 1478 1480 1482 1485 1487 1489 1491 1494 1495 1498 1501 1503 1506 1508 1511 1513 1516 1518 1520 1522 1524 1527 1529 1530 1532 1534 1535 1537 1538 1539 1540 1540 1541 1541 1542 1543 1543 1544 1544 1544 1544 1545 1545 1545 1545 1545 1545 1545 1545 1544 1544 1543 1543 1541 1540 1539 1537 1536 1534 1532 1530 1528 1525 1523 1520 1518 1515 1512 1509 1506 1502 1499 1496 1492 1488 1485 1481 1478 1474 1470 1466 1463 1459
1471 1473 1475 1478 1480 1482 1484 1486 1489 1491 1494 1496 1498 1500 1503 1505 1508 1511 1513 1516 1518 1520 1523 1525 1527 1528 1530 1532 1533 1535 1536 1538 1538 1539 1539 1539 1540 1541 1541 1542 1542 1542 1543 1543 1543 1543 1543 1543 1543 1543 1543 1543 1542 1542 1541 1540 1539 1538 1536 1535 1533 1532 1530 1527 1525 1523 1520 1518 1515 1512 1509 1506 1503 1500 1497 1493 1489 1486 1482 1479 1476 1472 1468 1465 1461
1469 1471 1473 1475 1477 1480 1482 1484 1486 1489 1491 1494 1496 1499 1501 1503 1506 1509 1512 1514 1515 1517 1519 1522 1524 1526 1528 1530 1531 1533 1534 1535 1536 1537 1537 1537 1538 1539 1539 1540 1540 1541 1541 1542 1542 1542 1542 1542 1541 1541 1541 1541 1540 1540 1539 1539 1538 1537 1535 1534 1532 1531 1529 1527 1525 1522 1520 1518 1515 1512 1509 1506 1503 1500 1497 1494 1490 1487 1484 1480 1477 1474 1470 1467 1463
1467 1469 1472 1474 1475 1478 1480 1482 1484 1486 1489 1492 1495 1498 1500 1502 1505 1508 1510 1512 1513 1515 1517 1519 1522 1524 1526 1528 1529 1530 1532 1533 1534 1534 1535 1535 1535 1536 1537 1537 1538 1539 1540 1540 1540 1540 1540 1540 1539 1539 1539 1539 1538 1538 1538 1537 1536 1535 1534 1532 1531 1530 1528 1526 1524 1522 1520 1517 1515 1512 1509 1506 1503 1500 1497 1494 1491 1488 1485 1482 1479 1475 1472 1469 1466
1465 1468 1470 1472 1474 1476 1479 1481 1483 1485 1487 1490 1493 1497 1499 1501 1504 1507 1509 1511 1513 1515 1516 1519 1521 1523 1525 1526 1527 1528 1529 1531 1532 1532 1532 1533 1533 1533 1534 1535 1536 1537 1538 1539 1539 1539 1538 1538 1537 1537 1537 1537 1536 1536 1536 1535 1535 1534 1533 1531 1530 1528 1527 1525 1523 1521 1519 1517 1515 1512 1509 1507 1504 1501 1498 1495 1492 1489 1486 1483 1480 1477 1474 1472 1468
1464 1466 1468 1470 1472 1474 1477 1480 1483 1485 1487 1489 1492 1496 1498 1500 1503 1505 1507 1509 1511 1513 1515 1517 1519 1521 1522 1523 1524 1526 1527 1528 1529 1529 1529 1530 1530 1530 1531 1532 1533 1535 1536 1536 1537 1537 1536 1536 1535 1535 1535 1535 1534 1534 1534 1533 1533 1532 1531 1530 1529 1527 1526 1524 1522 1520 1518 1516 1514 1512 1509 1506 1504 1501 1498 1495 1493 1490 1487 1485 1482 1479 1476 1473 1470
1462 1464 1466 1468 1470 1472 1475 1478 1481 1483 1485 1487 1491 1494 1497 1499 1501 1503 1505 1506 1508 1510 1512 1514 1517 1519 1520 1521 1523 1524 1525 1525 1525 1525 1526 1527 1527 1528 1529 1530 1531 1532 1533 1534 1535 1535 1534 1534 1534 1533 1533 1533 1532 1532 1532 1531 1531 1530 1529 1528 1527 1526 1524 1523 1521 1519 1517 1516 1513 1511 1509 1506 1504 1501 1498 1496 1493 1490 1488 1485 1483 1480 1477 1475 1472
1460 1463 1465 1467 1468 1470 1473 1476 1478 1480 1482 1485 1488 1491 1494 1497 1499 1500 1502 1504 1505 1507 1509 1511 1514 1516 1518 1519 1521 1522 1522 1522 1522 1523 1523 1524 1525 1525 1526 1527 1528 1529 1531 1532 1533 1532 1532 1532 1532 1531 1531 1531 1530 1530 1529 1529 1528 1528 1527 1526 1525 1524 1523 1521 1520 1518 1517 1515 1513 1511 1509 1506 1504 1501 1499 1496 1494 1491 1488 1486 1484 1481 1478 1476 1474
1459 1461 1463 1465 1466 1468 1471 1474 1476 1478 1480 1482 1485 1488 1491 1494 1497 1499 1500 1501 1502 1504 1506 1509 1511 1513 1515 1517 1519 1520 1520 1520 1521 1521 1521 1522 1522 1523 1524 1524 1526 1527 1528 1529 1530 1530 1530 1530 1530 1529 1529 1529 1528 1527 1527 1526 1526 1526 1525 1525 1524 1523 1521 1520 1518 1517 1515 1514 1512 1510 1508 1506 1504 1501 1499 1496 1494 1491 1489 1486 1484 1482 1480 1477 1475
1458 1460 1461 1463 1465 1467 1469 1472 1474 1476 1478 1480 1482 1485 1488 1491 1494 1497 1498 1499 1501 1502 1504 1506 1508 1511 1513 1515 1516 1517 1517 1518 1518 1519 1519 1519 1520 1521 1521 1522 1524 1525 1526 1527 1527 1527 1527 1527 1527 1527 1527 1526 1526 1525 1524 1524 1524 1523 1523 1522 1522 1521 1519 1518 1517 1515 1514 1512 1511 1509 1507 1505 1503 1501 1499 1496 1494 1492 1489 1487 1485 1483 1481 1478 1476
1456 1458 1460 1461 1463 1465 1467 1470 1473 1475 1476 1478 1480 1483 1486 1489 1491 1494 1495 1497 1498 1500 1502 1504 1506 1509 1511 1513 1514 1514 1514 1515 1516 1516 1516 1517 1518 1519 1520 1521 1522 1522 1523 1524 1524 1524 1524 1524 1524 1524 1524 1524 1523 1522 1522 1522 1522 1521 1521 1520 1520 1519 1517 1516 1515 1513 1512 1511 1509 1508 1506 1504 1502 1500 1498 1496 1494 1491 1489 1487 1485 1483 1481 1479 1476
1454 1456 1458 1459 1461 1463 1465 1468 1470 1472 1474 1476 1478 1481 1484 1487 1489 1491 1493 1494 1495 1497 1499 1502 1504 1507 1509 1510 1511 1511 1511 1512 1512 1513 1514 1515 1516 1517 1518 1519 1519 1520 1521 1521 1521 1522 1521 1521 1521 1521 1521 1521 1521 1520 1520 1520 1520 1519 1519 1518 1517 1516 1515 1514 1513 1512 1510 1509 1507 1506 1504 1503 1501 1499 1498 1496 1493 1491 1489 1487 1485 1483 1481 1478 1476
1453 1454 1456 1458 1460 1462 1464 1466 1468 1470 1472 1474 1477 1479 1481 1484 1487 1489 1490 1492 1493 1494 1497 1499 1502 1504 1506 1507 1508 1508 1508 1508 1509 1511 1512 1513 1514 1515 1515 1516 1517 1517 1518 1518 1519 1519 1518 1518 1518 1518 1518 1518 1518 1518 1518 1518 1517 1517 1516 1516 1515 1514 1513 1512 1510 1509 1508 1506 1505 1503 1502 1501 1499 1498 1496 1494 1493 1491 1489 1487 1485 1483 1480 1478 1476
1451 1452 1454 1456 1459 1461 1462 1464 1466 1468 1470 1472 1474 1476 1479 1481 1484 1486 1488 1489 1490 1492 1495 1497 1500 1502 1503 1504 1505 1505 1505 1506 1507 1508 1509 1510 1511 1512 1513 1514 1514 1515 1515 1515 1516 1516 1515 1515 1515 1515 1516 1516 1516 1516 1516 1515 1515 1514 1514 1513 1512 1511 1510 1509 1508 1507 1506 1504 1502 1501 1499 1498 1497 1496 1494 1493 1491 1490 1488 1486 1484 1482 1480 1478 1476
1449 1450 1452 1454 1456 1458 1460 1462 1464 1465 1467 1469 1471 1473 1476 1478 1481 1483 1485 1487 1488 1490 1493 1495 1497 1499 1500 1501 1502 1502 1503 1504 1505 1506 1507 1508 1509 1510 1510 1511 1511 1512 1512 1512 1513 1513 1512 1512 1512 1512 1513 1513 1513 1513 1513 1513 1512 1512 1511 1510 1509 1509 1508 1507 1506 1504 1503 1501 1500 1498 1497 1495 1494 1493 1492 1491 1489 1488 1486 1485 1483 1481 1479 1478 1476
1447 1448 1450 1452 1454 1456 1458 1460 1461 1463 1465 1466 1468 1471 1473 1475 1478 1481 1483 1484 1486 1488 1490 1492 1495 1496 1497 1498 1499 1500 1501 1502 1503 1504 1505 1506 1506 1507 1508 1508 1508 1508 1509 1509 1509 1509 1509 1509 1509 1510 1510 1510 1510 1510 1510 1510 1509 1509 1508 1507 1507 1506 1505 1504 1503 1502 1501 1499 1498 1496 1495 1493 1492 1491 1490 1488 1487 1486 1485 1483 1482 1481 1479 1477 1475
1445 1446 1448 1450 1452 1454 1456 1458 1459 1461 1463 1465 1467 1469 1471 1474 1476 1478 1480 1482 1484 1486 1488 1490 1492 1493 1495 1496 1497 1497 1498 1499 1500 1501 1502 1503 1504 1505 1505 1505 1505 1505 1505 1506 1506 1506 1506 1506 1506 1507 1507 1507 1507 1507 1506 1506 1506 1506 1505 1505 1504 1503 1502 1501 1500 1499 1498 1497 1495 1494 1492 1491 1489 1488 1487 1486 1485 1484 1482 1481 1480 1479 1478 1476 1475
1443 1444 1446 1448 1450 1452 1454 1456 1458 1460 1462 1464 1466 1468 1470 1472 1474 1476 1478 1480 1482 1484 1486 1488 1489 1491 1492 1493 1494 1495 1495 1496 1497 1498 1499 1500 1501 1502 1502 1502 1502 1502 1502 1502 1503 1503 1503 1503 1503 1503 1503 1503 1503 1503 1503 1503 1503 1502 1502 1501 1501 1500 1499 1498 1497 1496 1495 1494 1493 1491 1490 1488 1487 1486 1485 1483 1482 1481 1480 1479 1478 1477 1476 1475 1473
1441 1442 1444 1446 1449 1451 1453 1455 1457 1459 1461 1463 1465 1467 1469 1471 1473 1475 1477 1478 1480 1482 1484 1485 1487 1489 1490 1491 1491 1492 1493 1493 1494 1495 1496 1497 1497 1498 1498 1499 1499 1499 1499 1499 1499 1499 1500 1500 1500 1500 1500 1500 1500 1500 1500 1499 1499 1499 1498 1498 1497 1496 1495 1495 1494 1493 1492 1491 1490 1489 1487 1486 1485 1484 1482 1481 1480 1479 1477 1476 1475 1474 1473 1472 1471
1439 1440 1443 1445 1447 1449 1452 1454 1455 1457 1459 1461 1463 1465 1467 1469 1471 1473 1475 1477 1478 1480 1482 1483 1485 1486 1487 1488 1489 1489 1490 1490 1491 1492 1492 1493 1494 1494 1495 1495 1495 1495 1496 1496 1496 1496 1497 1497 1497 1497 1497 1497 1497 1496 1496 1496 1495 1495 1494 1494 1493 1492 1492 1491 1490 1490 1489 1487 1486 1485 1484 1483 1482 1481 1480 1479 1478 1476 1475 1474 1473 1471 1470 1469 1468